Tracking 27420 objects as of 28-May-2023
HD Live streaming from Space Station
objects crossing your sky now

THOR ABLESTAR DEB

Track THOR ABLESTAR DEB now!
10-day predictions


NORAD ID: 5715
Int'l Code: 1961-015JS
Perigee: 920.8 km
Apogee: 1,154.4 km
Inclination: 66.6 °
Period: 105.8 minutes
Semi major axis: 7408 km
RCS: 0.0104 m2 (small)
Launch date: June 29, 1961
Source: United States (US)
Launch site: AIR FORCE EASTERN TEST RANGE (AFETR)

Note: This is SATELLITE DEBRIS
Your satellite tracking list
Your tracking list is empty




NASA's NSSDC Master Catalog

Two Line Element Set (TLE):
1 05715U 61015JS  23147.88098619  .00000403  00000-0  57224-3 0  9997
2 05715  66.5666 203.5638 0157650  32.1771 143.4972 13.61437040 49593
Source of the keplerian elements: AFSPC